Location: Musselshell
(46.5176°N, 108.0911°W)
Time: 18:51:22
(UTC+00:00)

AO-7 - Visible Passes

Search period start: 29 June 2022 00:00
Search period end: 09 July 2022 00:00
Orbit: 1439 x 1459 km, 101.9° (Epoch: 29 June)

Date Brightness Start Highest point End Pass type
(mag) Time Alt. Az. Time Alt. Az. Time Alt. Az.
29 Jun ? 09:42:09 10° ENE 09:44:43 12° E 09:47:17 10° ESE visible
30 Jun ? 10:31:49 10° NE 10:38:41 27° E 10:45:30 10° SSE visible
02 Jul ? 10:24:58 10° NE 10:31:31 25° E 10:38:02 10° SE visible
04 Jul ? 10:18:09 10° NE 10:24:22 22° E 10:30:31 10° SE visible
06 Jul ? 10:11:24 10° NE 10:17:11 20° E 10:22:56 10° SE visible
08 Jul ? 10:04:41 10° NE 10:10:00 18° E 10:15:16 10° SE visible
